Weather reports worldwide

Advertisment
Gainesville, ga, United States of America (2074504): temperature & dewpoint: 10.07.2019 05:00:00 - 16.07.2019 05:00:00 (EDT)Gainesville, ga, United States of America (2074504): wind speed: 10.07.2019 05:00:00 - 16.07.2019 05:00:00 (EDT)Gainesville, ga, United States of America (2074504): wind direction: 10.07.2019 05:00:00 - 16.07.2019 05:00:00 (EDT)Gainesville, ga, United States of America (2074504): reduced air pressure: 10.07.2019 05:00:00 - 16.07.2019 05:00:00 (EDT)Gainesville, ga, United States of America (2074504): visibility: 10.07.2019 05:00:00 - 16.07.2019 05:00:00 (EDT)Gainesville, ga, United States of America (2074504): precipitation: 10.07.2019 05:00:00 - 16.07.2019 05:00:00 (EDT)
Date & Time tt [°C] td [°C] ff [km/h] ff [kn] dd ppp [hPa] vv [km] rr [mm]
16.07.2019 05:00:00 23,9 23,3 0 0 N 1019,3 16 -
16.07.2019 04:00:00 24,4 22,8 0 0 N 1019,2 16 -
16.07.2019 03:00:00 23,9 22,8 0 0 N 1019,5 16 -
16.07.2019 02:00:00 24,4 22,8 0 0 N 1019,8 16 -
16.07.2019 01:00:00 24,4 21,1 0 0 N 1019,8 16 -
16.07.2019 00:00:00 25,6 21,7 0 0 N 1019,9 16 -
15.07.2019 23:00:00 26,1 21,1 0 0 N 1020,0 16 -
15.07.2019 22:00:00 28,3 20,6 5 3 ENE 1019,7 16 -
15.07.2019 21:00:00 30,0 19,4 0 0 N 1019,3 16 -
15.07.2019 20:00:00 30,6 20,0 8 4 N 1019,2 16 -
15.07.2019 19:00:00 31,7 18,9 9 5 NW 1018,8 16 -
15.07.2019 18:00:00 31,7 20,0 13 7 NW 1019,1 16 -
15.07.2019 17:00:00 32,8 19,4 11 6 NNW 1019,2 16 -
15.07.2019 16:00:00 32,2 20,0 11 6 NNW 1019,8 16 -
15.07.2019 15:00:00 31,7 18,3 11 6 - 1020,2 16 -
15.07.2019 14:00:00 31,1 18,3 15 8 WNW 1020,8 16 -
15.07.2019 13:00:00 30,6 20,0 0 0 N 1021,1 16 -
15.07.2019 12:00:00 29,4 20,0 0 0 N 1021,3 16 -
15.07.2019 11:00:00 28,9 20,0 0 0 N 1021,1 16 -
15.07.2019 10:00:00 27,8 20,0 9 5 E 1020,8 16 -
15.07.2019 09:00:00 25,6 20,6 0 0 N 1020,5 16 -
15.07.2019 08:00:00 22,2 20,6 0 0 N 1020,4 16 -
15.07.2019 07:00:00 21,7 20,0 5 3 NW 1020,2 16 -
15.07.2019 06:00:00 22,2 20,0 5 3 NNW 1019,8 16 -
15.07.2019 05:00:00 22,8 19,4 8 4 NW 1019,7 16 -
15.07.2019 04:00:00 21,7 19,4 5 3 W 1019,6 16 -
15.07.2019 03:00:00 22,2 20,0 9 5 W 1019,4 16 -
15.07.2019 02:00:00 23,3 20,0 8 4 N 1019,7 16 -
15.07.2019 01:00:00 23,3 20,6 9 5 WNW 1020,4 16 -
15.07.2019 00:00:00 23,9 20,0 8 4 NW 1020,6 16 -
14.07.2019 23:00:00 24,4 20,6 8 4 WNW 1021,1 16 -
14.07.2019 22:00:00 25,0 20,6 9 5 WNW 1020,8 16 -
14.07.2019 21:00:00 25,6 20,6 9 5 WNW 1020,3 16 -
14.07.2019 20:00:00 27,2 20,6 9 5 WNW 1020,4 16 -
14.07.2019 19:00:00 28,3 19,4 15 8 N 1020,2 16 -
14.07.2019 18:00:00 28,9 20,0 16 9 NNW 1020,4 16 -
14.07.2019 17:00:00 30,0 18,9 18 10 WNW 1020,5 16 -
14.07.2019 16:00:00 30,6 20,0 16 9 NW 1020,6 16 -
14.07.2019 15:00:00 30,6 19,4 16 9 WNW 1021,1 16 -
14.07.2019 14:00:00 29,4 19,4 15 8 W 1021,9 16 -
14.07.2019 13:00:00 28,9 21,1 13 7 WNW 1022,3 16 -
14.07.2019 12:00:00 27,8 20,6 8 4 W 1022,5 16 -
14.07.2019 11:00:00 27,8 20,0 18 10 WNW 1022,5 16 -
14.07.2019 10:00:00 25,6 21,1 9 5 WNW 1022,1 16 -
14.07.2019 09:00:00 24,4 22,2 8 4 WNW 1021,6 16 -
14.07.2019 08:00:00 22,8 22,2 9 5 W 1021,5 16 -
14.07.2019 07:00:00 22,2 21,7 13 7 W 1020,7 16 -
14.07.2019 06:00:00 22,8 21,7 9 5 W 1019,8 16 -
14.07.2019 05:00:00 23,9 21,7 11 6 WNW 1019,4 16 -
14.07.2019 04:00:00 22,8 21,7 11 6 W 1019,3 16 -
14.07.2019 03:00:00 22,8 21,7 9 5 W 1019,7 16 -
14.07.2019 02:00:00 22,8 22,8 9 5 W 1020,4 16 -
14.07.2019 01:00:00 22,8 22,8 8 4 WSW 1021,2 16 -
14.07.2019 00:00:00 22,8 22,2 8 4 W 1021,3 16 -
13.07.2019 23:00:00 22,2 22,2 5 3 WNW 1021,1 16 -
13.07.2019 22:00:00 22,8 22,2 11 6 WNW 1020,7 16 0,0
13.07.2019 21:00:00 22,2 22,2 11 6 W 1020,2 16 0,3
13.07.2019 20:00:00 22,2 21,7 15 8 WSW 1019,9 16 0,0
13.07.2019 19:00:00 26,1 22,2 18 10 W 1019,5 16 -
13.07.2019 18:00:00 26,1 22,8 5 3 WSW 1018,6 16 -
13.07.2019 17:00:00 26,1 23,3 13 7 W 1018,3 16 0,3
13.07.2019 16:00:00 27,8 21,7 22 12 WSW 1018,1 16 -
13.07.2019 15:00:00 29,4 22,2 11 6 WNW 1018,1 16 -
13.07.2019 14:00:00 30,0 22,8 18 10 WSW 1018,4 16 -
13.07.2019 13:00:00 28,9 22,8 16 9 W 1019,0 16 -
13.07.2019 12:00:00 27,8 23,3 11 6 WSW 1019,5 16 -
13.07.2019 11:00:00 27,2 23,3 15 8 W 1019,4 16 -
13.07.2019 10:00:00 26,7 22,8 16 9 WNW 1018,9 16 -
13.07.2019 09:00:00 25,0 23,3 15 8 W 1018,6 16 -
13.07.2019 08:00:00 23,9 23,3 9 5 W 1017,5 16 -
13.07.2019 07:00:00 23,3 23,3 9 5 W 1016,8 16 -
13.07.2019 06:00:00 23,3 23,3 8 4 WNW 1016,1 16 -
13.07.2019 05:00:00 23,3 23,3 8 4 W 1015,6 16 -
13.07.2019 04:00:00 22,8 22,8 5 3 W 1015,6 16 -
13.07.2019 03:00:00 22,8 22,8 0 0 N 1015,6 16 -
13.07.2019 02:00:00 23,3 22,8 0 0 N 1015,2 16 -
13.07.2019 01:00:00 23,9 23,3 11 6 WNW 1015,6 16 1,8
13.07.2019 00:00:00 24,4 22,2 16 9 W 1015,7 16 -
12.07.2019 23:00:00 26,7 24,4 9 5 ESE 1015,2 16 -
12.07.2019 22:00:00 27,8 24,4 5 3 N 1014,7 16 -
12.07.2019 21:00:00 27,8 23,9 5 3 ENE 1013,8 16 -
12.07.2019 20:00:00 29,4 23,3 5 3 NE 1013,6 16 -
12.07.2019 19:00:00 30,0 23,3 0 0 N 1013,2 16 -
12.07.2019 18:00:00 30,6 21,1 9 5 W 1012,7 16 -
12.07.2019 17:00:00 30,6 22,2 8 4 SW 1013,1 16 -
12.07.2019 16:00:00 31,1 22,2 9 5 - 1013,1 16 -
12.07.2019 15:00:00 30,0 22,2 15 8 W 1013,9 16 -
12.07.2019 14:00:00 30,0 22,2 18 10 SW 1014,4 16 -
12.07.2019 13:00:00 28,9 22,2 16 9 WSW 1015,1 16 -
12.07.2019 12:00:00 27,8 22,8 18 10 WSW 1015,0 16 -
12.07.2019 11:00:00 27,2 23,9 15 8 SW 1014,8 16 -
12.07.2019 10:00:00 25,6 23,9 13 7 WSW 1014,7 16 0,3
12.07.2019 09:00:00 24,4 23,9 15 8 WSW 1014,5 16 -
12.07.2019 08:00:00 22,2 22,2 5 3 S 1014,0 15 -
12.07.2019 07:00:00 22,2 22,2 0 0 N 1013,7 16 0,3
12.07.2019 06:00:00 21,7 21,7 9 5 SE 1013,2 16 0,0
12.07.2019 05:00:00 22,2 22,2 5 3 ESE 1012,8 16 -
12.07.2019 04:00:00 22,2 22,2 5 3 SW 1012,4 16 -
12.07.2019 03:00:00 22,2 22,2 9 5 N 1013,1 16 0,3
12.07.2019 02:00:00 22,2 21,7 15 8 SW 1013,0 16 0,5
12.07.2019 01:00:00 22,2 22,2 9 5 SW 1013,1 16 0,0
12.07.2019 00:00:00 22,8 22,8 16 9 W 1014,5 4,8 2,0
11.07.2019 23:00:00 23,3 23,3 13 7 NNW 1014,0 15 0,0
11.07.2019 22:00:00 24,4 22,8 13 7 N 1013,5 16 0,0
11.07.2019 21:00:00 27,2 24,4 8 4 SSE 1012,4 16 -
11.07.2019 20:00:00 28,3 24,4 5 3 SE 1011,9 16 -
11.07.2019 19:00:00 28,9 23,9 5 3 SSE 1011,3 16 -
11.07.2019 18:00:00 30,0 23,3 9 5 S 1011,6 16 -
11.07.2019 17:00:00 31,1 23,9 9 5 S 1011,7 16 -
11.07.2019 16:00:00 30,6 23,3 8 4 SW 1012,6 16 -
11.07.2019 15:00:00 30,0 23,3 9 5 SSW 1013,1 16 -
11.07.2019 14:00:00 30,6 22,8 0 0 N 1013,7 16 -
11.07.2019 13:00:00 28,9 22,2 5 3 - 1014,7 16 -
11.07.2019 12:00:00 28,3 22,2 8 4 - 1015,3 16 -
11.07.2019 11:00:00 27,2 22,8 0 0 N 1015,7 16 -
11.07.2019 10:00:00 24,4 23,9 13 7 S 1015,9 11 -
11.07.2019 09:00:00 26,1 23,3 0 0 N 1015,4 16 -
11.07.2019 08:00:00 25,0 23,9 0 0 N 1015,1 13 -
11.07.2019 07:00:00 23,3 23,3 5 3 N 1015,1 8 -
11.07.2019 06:00:00 23,3 23,3 0 0 N 1014,5 10 -
11.07.2019 05:00:00 23,3 23,3 8 4 E 1014,6 13 -
11.07.2019 04:00:00 23,9 23,3 8 4 E 1014,5 16 -
11.07.2019 03:00:00 23,9 23,3 0 0 N 1014,7 16 -
11.07.2019 02:00:00 24,4 23,3 5 3 SSE 1015,3 16 -
11.07.2019 01:00:00 25,0 23,3 8 4 SE 1015,2 16 -
11.07.2019 00:00:00 25,6 23,3 5 3 SE 1015,5 16 -
10.07.2019 23:00:00 26,7 23,3 8 4 E 1015,6 16 -
10.07.2019 22:00:00 27,2 22,8 5 3 SE 1015,6 16 -
10.07.2019 21:00:00 27,8 23,3 5 3 ESE 1015,1 16 -
10.07.2019 20:00:00 29,4 23,3 5 3 ESE 1015,0 16 -
10.07.2019 19:00:00 30,0 22,8 13 7 E 1014,6 16 -
10.07.2019 18:00:00 31,7 22,2 13 7 ENE 1014,3 16 -
10.07.2019 17:00:00 - - - - - - - -
10.07.2019 16:00:00 - - - - - - - -
10.07.2019 15:00:00 - - - - - - - -
10.07.2019 14:00:00 - - - - - - - -
10.07.2019 13:00:00 - - - - - - - -
10.07.2019 12:00:00 - - - - - - - -
10.07.2019 11:00:00 - - - - - - - -
10.07.2019 10:00:00 - - - - - - - -
10.07.2019 09:00:00 - - - - - - - -
10.07.2019 08:00:00 - - - - - - - -
10.07.2019 07:00:00 - - - - - - - -
10.07.2019 06:00:00 - - - - - - - -
10.07.2019 05:00:00 - - - - - - - -

tt = temperature
td = dewpoint
ff = wind speed
dd = wind direction
ppp = reduced air pressure
vv = visibility
rr = precipitation

Next stations